Location: Newark
(21.1200°N, 73.4000°E)
Time: 02:20:09
(UTC+00:00)

Courier 1B Rocket - Pass Details

Date: 26 January 2020
Orbit: 920 x 1202 km, 28.2° (Epoch: 19 February)

Event Time Altitude Azimuth Distance (km) Brightness Sun altitude
Rises 02:29:51 0° 210° (SSW) 4,087 8.2 8.8°
Reaches altitude 10° 02:33:31 10° 195° (SSW) 3,118 7.8 9.6°
Maximum altitude 02:39:06 21° 149° (SSE) 2,342 8.1 10.8°
Drops below altitude 10° 02:44:33 10° 102° (ESE) 3,039 9.7 11.9°
Sets 02:48:02 0° 88° (E) 3,957 9.3 12.6°
